Tiempo atmosférico en la estación meteorológica de La Oliva, Puerto de Corralejo, Las Palmas (6 m.)



Fecha
DESCASC
Temp. máxima en grados centígrados (hora)
DESCASC
Temp. mínima en grados centígrados (hora)
DESCASC
Temp. media en grados centígrados
DESCASC
Racha de viento máxima en m/sg (hora)
DESCASC
Velocidad máxima media en intervalos de 10 minutos(hora)
DESCASC
Precipitaciones diarias en mm
DESCASC
Precipitaciones de 00:00 a 06:00 en mm
DESCASC
Precipitaciones de 06:00 a 12:00 en mm
DESCASC
Precipitaciones de 12:00 a 18:00 en mm
DESCASC
Precipitaciones de 18:00 a 24:00 en mm
DESCASC
25-04-2019 22.4 (13:30) 17.8 (03:20) 20.1 12.22 (19:00) 8.89 (17:30) 0 0 0 0 0
24-04-2019 20.2 (14:10) 16.8 (04:50) 18.5 10.83 (16:00) 7.22 (16:30) 0 0 0 0 0
23-04-2019 20 (09:50) 16.8 (22:30) 18.4 12.22 (10:00) 8.33 (13:50) 0.2 0 0.2 0 0
22-04-2019 20.4 (14:40) 17.7 (00:00) 19.1 12.78 (18:00) 8.61 (02:30) 0 0 0 0 0
21-04-2019 20 (15:00) 17.1 (00:00) 18.6 15 (13:00) 8.89 (13:10) 0 0 0 0 0
20-04-2019 19.7 (16:40) 17.2 (00:00) 18.5 13.06 (18:20) 9.17 (09:50) 0 0 0 0 0
19-04-2019 19.7 (16:00) 17.1 (00:00) 18.4 15.56 (10:00) 9.72 (08:20) 0 0 0 0 0
18-04-2019 19.7 (17:00) 17.6 (00:00) 18.7 13.06 (20:10) 10 (20:10) 0 0 0 0 0
17-04-2019 21.8 (12:50) 17.1 (00:00) 19.4 14.17 (14:00) 8.89 (14:00) 0 0 0 0 0
16-04-2019 22.1 (13:10) 17.3 (00:00) 19.7 7.78 (01:00) 5.83 (15:00) 0 0 0 0 0
15-04-2019 22.3 (18:30) 17.7 (00:00) 20 10 (04:00) 6.94 (04:40) 0 0 0 0 0
14-04-2019 21.3 (12:50) 15.9 (00:00) 18.6 11.11 (16:00) 6.94 (15:40) 0 0 0 0 0
13-04-2019 21.6 (13:20) 16.9 (00:00) 19.3 15.28 (18:00) 10 (17:20) 0 0 0 0 0
12-04-2019 20 (12:50) 16.9 (00:00) 18.4 14.44 (15:00) 11.11 (15:20) 0 0 0 0 0
11-04-2019 19.9 (15:00) 17 (00:00) 18.4 15.28 (14:00) 11.39 (16:00) 0 0 0 0 0
10-04-2019 19.6 (12:40) 17.1 (00:00) 18.4 16.39 (14:00) 10.83 (17:40) 0 0 0 0 0
09-04-2019 19.9 (11:20) 17.4 (00:00) 18.6 13.89 (14:00) 10.28 (15:10) 0 0 0 0 0
08-04-2019 20.3 (13:50) 17.3 (00:00) 18.8 11.39 (15:00) 8.61 (18:20) 0 0 0 0 0
07-04-2019 20.1 (13:40) 17.1 (00:00) 18.6 10.28 (12:00) 6.67 (12:30) 0.2 0 0.2 0 0
06-04-2019 18.8 (15:40) 15.8 (00:00) 17.3 15.83 (00:30) 11.39 (00:30) 0 0 0 0 0
05-04-2019 19.8 (14:40) 16.5 (00:00) 18.1 14.72 (15:30) 10.56 (22:20) 0.8 0 0 0.6 0.2
04-04-2019 19.6 (16:50) 16.8 (00:00) 18.2 11.11 (21:00) 8.06 (08:40) 0.2 0 0.2 0 0
03-04-2019 20.5 (10:30) 16.7 (00:00) 18.6 12.5 (13:20) 8.61 (13:40) 0 0 0 0 0
02-04-2019 21.1 (17:20) 17.6 (00:00) 19.4 12.5 (07:00) 8.61 (07:20) 0 0 0 0 0
01-04-2019 20.4 (13:40) 17.5 (00:00) 18.9 7.5 (04:20) 4.72 (04:10) 0 0 0 0 0
31-03-2019 20.4 (15:10) 17.2 (00:00) 18.8 12.22 (18:00) 6.94 (19:10) 0 0 0 0 0
30-03-2019 20.1 (10:10) 15.6 (00:00) 17.9 9.17 (21:30) 6.11 (21:30) 0 0 0 0 0
29-03-2019 20.9 (15:00) 16.7 (00:00) 18.8 8.61 (19:00) 6.67 (17:50) 0 0 0 0 0
28-03-2019 20.3 (16:30) 17 (00:00) 18.6 7.22 (03:00) 5.28 (17:10) 0 0 0 0 0
27-03-2019 20.7 (13:50) 15.9 (00:00) 18.3 8.33 (14:00) 5.28 (14:50) 0 0 0 0 0

Gráficas

Temp. máximas Temp. mínimas Temp. medias Precipitaciones Rachas de viento máximas Velocidades máximas media en intervalos de 10 minutos

Datos horarios

Fecha y hora oficial Temperatura (ºC) Velocidad del viento (km/h) Dirección del viento Racha (km/h) Dirección de racha Precipitación (mm) Presión (hPa) Tendencia (hPa) Humedad (%)
2019-04-25 23:00:00 18.8 27 Norte 38 Norte 0 -- -- 76
2019-04-25 22:00:00 19 27 Norte 40 Norte 0 -- -- 71
2019-04-25 21:00:00 19.1 27 Norte 37 Norte 0 -- -- 69
2019-04-25 20:00:00 19.5 27 Noroeste 36 Noroeste 0 -- -- 68
2019-04-25 19:00:00 20.1 29 Noroeste 44 Noroeste 0 -- -- 66
2019-04-25 18:00:00 20.2 31 Noroeste 39 Noroeste 0 -- -- 65
2019-04-25 17:00:00 20.8 26 Norte 42 Norte 0 -- -- 61
2019-04-25 16:00:00 20.8 22 Norte 27 Noroeste 0 -- -- 61
2019-04-25 15:00:00 21.2 12 Norte 25 Noroeste 0 -- -- 57
2019-04-25 14:00:00 21.5 12 Norte 19 Norte 0 -- -- 54
2019-04-25 13:00:00 21.5 11 Norte 32 Noroeste 0 -- -- 57
2019-04-25 12:00:00 20.7 22 Norte 32 Norte 0 -- -- 59
2019-04-25 11:00:00 20 20 Norte 30 Noroeste 0 -- -- 58
2019-04-25 10:00:00 19.7 19 Norte 28 Norte 0 -- -- 54
2019-04-25 09:00:00 18.9 16 Noroeste 30 Norte 0 -- -- 58
2019-04-25 08:00:00 18.6 19 Noroeste 31 Noroeste 0 -- -- 56
2019-04-25 07:00:00 18.6 16 Norte 31 Norte 0 -- -- 61
2019-04-25 06:00:00 18.2 12 Norte 22 Norte 0 -- -- 65
2019-04-25 05:00:00 18 19 Norte 29 Norte 0 -- -- 67
2019-04-25 04:00:00 18 14 Noroeste 24 Noroeste 0 -- -- 67
2019-04-25 03:00:00 17.9 17 Noroeste 26 Noroeste 0 -- -- 65
2019-04-25 02:00:00 18 18 Noroeste 27 Noroeste 0 -- -- 65
2019-04-25 01:00:00 18.1 22 Noroeste 29 Noroeste 0 -- -- 66
2019-04-25 00:00:00 18.2 19 Noroeste 28 Noroeste 0 -- -- 65
2019-04-24 23:00:00 18.4 18 Noroeste 31 Noroeste 0 -- -- 63
2019-04-24 22:00:00 18.4 18 Noroeste 31 Noroeste 0 -- -- 59
2019-04-24 21:00:00 18.4 21 Noroeste 34 Noroeste 0 -- -- 60
2019-04-24 20:00:00 19 23 Noroeste 39 Noroeste 0 -- -- 61
2019-04-24 19:00:00 19.5 20 Noroeste 30 Noroeste 0 -- -- 59
2019-04-24 18:00:00 19.8 22 Noroeste 32 Noroeste 0 -- -- 55
2019-04-24 17:00:00 19.7 23 Noroeste 35 Noroeste 0 -- -- 59
2019-04-24 16:00:00 19.8 22 Noroeste 39 Noroeste 0 -- -- 59
2019-04-24 15:00:00 19.8 23 Noroeste 31 Noroeste 0 -- -- 57
2019-04-24 14:00:00 20 17 Noroeste 25 Noroeste 0 -- -- 58
2019-04-24 13:00:00 19.5 15 Noroeste 22 Noroeste 0 -- -- 58
2019-04-24 12:00:00 19.6 13 Norte 19 Norte 0 -- -- 57
2019-04-24 11:00:00 19.2 17 Norte 23 Noroeste 0 -- -- 59
2019-04-24 10:00:00 18.9 18 Norte 30 Noroeste 0 -- -- 61
2019-04-24 09:00:00 18.6 14 Noroeste 23 Noroeste 0 -- -- 60
2019-04-24 08:00:00 17.5 15 Noroeste 24 Noroeste 0 -- -- 63
2019-04-24 07:00:00 17.1 16 Noroeste 28 Noroeste 0 -- -- 66
2019-04-24 06:00:00 17.1 17 Noroeste 24 Norte 0 -- -- 64
2019-04-24 05:00:00 17.1 14 Noroeste 27 Norte 0 -- -- 63
2019-04-24 04:00:00 17.1 21 Norte 28 Noroeste 0 -- -- 63
2019-04-24 03:00:00 17.2 20 Norte 27 Norte 0 -- -- 64
2019-04-24 02:00:00 17.1 19 Noroeste 32 Noroeste 0 -- -- 65
2019-04-24 01:00:00 17.2 18 Noroeste 27 Noroeste 0 -- -- 63
2019-04-24 00:00:00 17.3 17 Norte 26 Norte 0 -- -- 68
2019-04-23 23:00:00 17.4 18 Norte 32 Noroeste 0 -- -- 68
2019-04-23 22:00:00 17.3 20 Norte 37 Norte 0 -- -- 68
2019-04-23 21:00:00 17.8 26 Norte 37 Norte 0 -- -- 65
2019-04-23 20:00:00 18.2 23 Norte 33 Norte 0 -- -- 62
2019-04-23 19:00:00 19.2 22 Norte 35 Norte 0 -- -- 59
2019-04-23 18:00:00 19.1 26 Norte 37 Norte 0 -- -- 61
2019-04-23 17:00:00 19.4 22 Norte 35 Noroeste 0 -- -- 64
2019-04-23 16:00:00 19.5 21 Noroeste 33 Noroeste 0 -- -- 65
2019-04-23 15:00:00 19.4 24 Noroeste 36 Norte 0 -- -- 71
2019-04-23 14:00:00 19.4 29 Norte 40 Noroeste 0 -- -- 81
2019-04-23 13:00:00 18.6 27 Noroeste 38 Noroeste 0 -- -- 88
2019-04-23 12:00:00 18.1 20 Oeste 39 Oeste 0.2 -- -- 85
2019-04-23 11:00:00 19.4 19 Oeste 42 Oeste 0 -- -- 69
2019-04-23 10:00:00 19.6 27 Noroeste 44 Noroeste 0 -- -- 61
2019-04-23 09:00:00 19.6 20 Noroeste 37 Noroeste 0 -- -- 57
2019-04-23 08:00:00 18.7 21 Noroeste 38 Noroeste 0 -- -- 65
2019-04-23 07:00:00 18.4 23 Noroeste 41 Noroeste 0 -- -- 66
2019-04-23 06:00:00 18.5 21 Noroeste 30 Oeste 0 -- -- 71
2019-04-23 05:00:00 18.3 18 Noroeste 28 Oeste 0 -- -- 68
2019-04-23 04:00:00 18.3 18 Noroeste 32 Noroeste 0 -- -- 78
2019-04-23 03:00:00 18.2 17 Noroeste 27 Noroeste 0 -- -- 83
2019-04-23 02:00:00 18.9 20 Norte 31 Noroeste 0 -- -- 70
2019-04-23 01:00:00 18.8 19 Noroeste 33 Noroeste 0 -- -- 67
2019-04-23 00:00:00 18.6 23 Noroeste 33 Noroeste 0 -- -- 61
2019-04-22 23:00:00 18.4 21 Noroeste 40 Noroeste 0 -- -- 65
2019-04-22 22:00:00 18.4 22 Noroeste 35 Noroeste 0 -- -- 66
2019-04-22 21:00:00 18.4 24 Noroeste 34 Noroeste 0 -- -- 68
2019-04-22 20:00:00 18.6 24 Noroeste 37 Noroeste 0 -- -- 66
2019-04-22 19:00:00 19.1 25 Noroeste 41 Noroeste 0 -- -- 64
2019-04-22 18:00:00 19.1 30 Noroeste 46 Noroeste 0 -- -- 63
2019-04-22 17:00:00 19.5 26 Noroeste 40 Noroeste 0 -- -- 61
2019-04-22 16:00:00 19.7 27 Noroeste 39 Noroeste 0 -- -- 60
2019-04-22 15:00:00 20.3 22 Noroeste 39 Noroeste 0 -- -- 58
2019-04-22 14:00:00 19.8 26 Noroeste 39 Noroeste 0 -- -- 57
2019-04-22 13:00:00 19.5 26 Noroeste 40 Noroeste 0 -- -- 60
2019-04-22 12:00:00 19.4 25 Noroeste 37 Noroeste 0 -- -- 61
2019-04-22 11:00:00 19.3 23 Noroeste 37 Noroeste 0 -- -- 61
2019-04-22 10:00:00 18.7 22 Noroeste 38 Noroeste 0 -- -- 63
2019-04-22 09:00:00 18.3 22 Noroeste 40 Noroeste 0 -- -- 62
2019-04-22 08:00:00 18.1 25 Noroeste 36 Noroeste 0 -- -- 68
2019-04-22 07:00:00 18.2 26 Noroeste 38 Noroeste 0 -- -- 69
2019-04-22 06:00:00 18 22 Noroeste 37 Noroeste 0 -- -- 70
2019-04-22 05:00:00 18 24 Noroeste 37 Noroeste 0 -- -- 70
2019-04-22 04:00:00 18 24 Noroeste 41 Noroeste 0 -- -- 67
2019-04-22 03:00:00 18.3 27 Noroeste 44 Noroeste 0 -- -- 67
2019-04-22 02:00:00 18.4 20 Noroeste 43 Noroeste 0 -- -- 68
2019-04-22 01:00:00 18.1 30 Noroeste 42 Noroeste 0 -- -- 68
2019-04-22 00:00:00 18.3 24 Noroeste 41 Noroeste 0 -- -- 68
2019-04-21 23:00:00 18.5 23 Noroeste 36 Noroeste 0 -- -- 68
2019-04-21 22:00:00 18.5 26 Noroeste 38 Noroeste 0 -- -- 73
2019-04-21 21:00:00 18.5 22 Noroeste 39 Noroeste 0 -- -- 74
2019-04-21 20:00:00 18.7 26 Noroeste 40 Noroeste 0 -- -- 69
2019-04-21 19:00:00 19.3 29 Noroeste 44 Noroeste 0 -- -- 69
2019-04-21 18:00:00 19.6 26 Noroeste 38 Noroeste 0 -- -- 65
2019-04-21 17:00:00 19.8 27 Noroeste 38 Noroeste 0 -- -- 67
2019-04-21 16:00:00 19.5 30 Noroeste 46 Noroeste 0 -- -- 68
2019-04-21 15:00:00 20 29 Noroeste 42 Noroeste 0 -- -- 68
2019-04-21 14:00:00 19.5 30 Noroeste 49 Noroeste 0 -- -- 67
2019-04-21 13:00:00 19.3 30 Norte 54 Noroeste 0 -- -- 71
2019-04-21 12:00:00 19.1 25 Noroeste 37 Noroeste 0 -- -- 69
2019-04-21 11:00:00 19 22 Noroeste 35 Noroeste 0 -- -- 67
2019-04-21 10:00:00 18.4 21 Noroeste 33 Noroeste 0 -- -- 72
2019-04-21 09:00:00 18 21 Noroeste 30 Noroeste 0 -- -- 72
2019-04-21 08:00:00 17.6 22 Norte 33 Norte 0 -- -- 77
2019-04-21 07:00:00 17.3 24 Norte 41 Norte 0 -- -- 78
2019-04-21 06:00:00 17.4 23 Norte 34 Norte 0 -- -- 79
2019-04-21 05:00:00 17.3 19 Norte 30 Norte 0 -- -- 78
2019-04-21 04:00:00 17.1 17 Norte 22 Norte 0 -- -- 77
2019-04-21 03:00:00 17.4 18 Norte 28 Norte 0 -- -- 79
2019-04-21 02:00:00 17.7 18 Norte 28 Norte 0 -- -- 80
2019-04-21 01:00:00 17.8 22 Norte 31 Norte 0 -- -- 79
2019-04-21 00:00:00 17.8 25 Norte 42 Norte 0 -- -- 80
2019-04-20 23:00:00 17.9 27 Norte 37 Norte 0 -- -- 81
2019-04-20 22:00:00 18 26 Norte 35 Norte 0 -- -- 77
2019-04-20 21:00:00 18.1 25 Norte 33 Noroeste 0 -- -- 72
2019-04-20 20:00:00 18.4 26 Norte 44 Norte 0 -- -- 68
2019-04-20 19:00:00 18.8 27 Noroeste 47 Norte 0 -- -- 67
2019-04-20 18:00:00 19.5 27 Noroeste 40 Noroeste 0 -- -- 62
2019-04-20 17:00:00 19.5 23 Noroeste 35 Noroeste 0 -- -- 59
2019-04-20 16:00:00 19.5 28 Noroeste 41 Noroeste 0 -- -- 59
2019-04-20 15:00:00 19.4 27 Noroeste 37 Norte 0 -- -- 59
2019-04-20 14:00:00 19.2 28 Noroeste 42 Norte 0 -- -- 62
2019-04-20 13:00:00 19.1 30 Norte 41 Noroeste 0 -- -- 61
2019-04-20 12:00:00 18.9 26 Norte 34 Norte 0 -- -- 62
2019-04-20 11:00:00 17.9 25 Norte 42 Noroeste 0 -- -- 64
2019-04-20 10:00:00 18.3 31 Norte 41 Norte 0 -- -- 67
2019-04-20 09:00:00 18.2 31 Norte 43 Norte 0 -- -- 68
2019-04-20 08:00:00 17.3 30 Norte 46 Norte 0 -- -- 69
2019-04-20 07:00:00 17.4 27 Norte 36 Norte 0 -- -- 69
2019-04-20 06:00:00 17.5 27 Norte 44 Norte 0 -- -- 68
2019-04-20 05:00:00 17.5 28 Norte 41 Norte 0 -- -- 66
2019-04-20 04:00:00 17.5 30 Norte 46 Norte 0 -- -- 68
2019-04-20 03:00:00 17.6 26 Norte 41 Norte 0 -- -- 69
2019-04-20 02:00:00 17.6 26 Norte 38 Norte 0 -- -- 68
2019-04-20 01:00:00 17.7 30 Norte 42 Norte 0 -- -- 68
2019-04-20 00:00:00 17.8 35 Norte 46 Norte 0 -- -- 68
2019-04-19 23:00:00 17.6 31 Norte 45 Noroeste 0 -- -- 69
2019-04-19 22:00:00 17.6 33 Norte 44 Noroeste 0 -- -- 68
2019-04-19 21:00:00 17.7 32 Norte 49 Norte 0 -- -- 68
2019-04-19 20:00:00 18.1 34 Norte 44 Norte 0 -- -- 67
2019-04-19 19:00:00 18.5 29 Noroeste 39 Noroeste 0 -- -- 66
2019-04-19 18:00:00 18.6 28 Noroeste 40 Noroeste 0 -- -- 66
2019-04-19 17:00:00 19.6 29 Noroeste 38 Noroeste 0 -- -- 59
2019-04-19 16:00:00 19.7 30 Noroeste 38 Noroeste 0 -- -- 60
2019-04-19 15:00:00 19.6 31 Noroeste 41 Noroeste 0 -- -- 59
2019-04-19 14:00:00 19.4 31 Noroeste 50 Noroeste 0 -- -- 58
2019-04-19 13:00:00 19.3 31 Noroeste 42 Norte 0 -- -- 58
2019-04-19 12:00:00 18.7 30 Norte 42 Norte 0 -- -- 62
2019-04-19 11:00:00 18.5 31 Norte 44 Norte 0 -- -- 63
2019-04-19 10:00:00 18.3 33 Norte 56 Norte 0 -- -- 64
2019-04-19 09:00:00 18 32 Norte 49 Norte 0 -- -- 65
2019-04-19 08:00:00 17.6 30 Norte 45 Norte 0 -- -- 66
2019-04-19 07:00:00 17.2 27 Norte 40 Norte 0 -- -- 66
2019-04-19 06:00:00 17.1 26 Norte 44 Norte 0 -- -- 66
2019-04-19 05:00:00 17.4 31 Norte 47 Norte 0 -- -- 68
2019-04-19 04:00:00 17.5 32 Norte 47 Norte 0 -- -- 64
2019-04-19 03:00:00 17.6 32 Norte 46 Norte 0 -- -- 68
2019-04-19 02:00:00 17.7 32 Norte 51 Norte 0 -- -- 67
2019-04-19 01:00:00 17.7 29 Norte 39 Norte 0 -- -- 63
2019-04-19 00:00:00 17.7 28 Norte 44 Norte 0 -- -- 64
2019-04-18 23:00:00 17.7 33 Norte 46 Noroeste 0 -- -- 63
2019-04-18 22:00:00 17.7 29 Norte 43 Norte 0 -- -- 64
2019-04-18 21:00:00 17.7 31 Norte 47 Norte 0 -- -- 63
2019-04-18 20:00:00 18.2 32 Norte 45 Norte 0 -- -- 63
2019-04-18 19:00:00 18.2 29 Norte 44 Norte 0 -- -- 64
2019-04-18 18:00:00 19.5 28 Noroeste 40 Norte 0 -- -- 53
2019-04-18 17:00:00 19.7 30 Norte 44 Norte 0 -- -- 57
2019-04-18 16:00:00 19.4 32 Noroeste 42 Noroeste 0 -- -- 58
2019-04-18 15:00:00 19.5 28 Noroeste 38 Norte 0 -- -- 58
2019-04-18 14:00:00 19.2 31 Noroeste 38 Noroeste 0 -- -- 59
2019-04-18 13:00:00 19.3 30 Norte 39 Noroeste 0 -- -- 58
2019-04-18 12:00:00 19.5 28 Norte 41 Norte 0 -- -- 59
2019-04-18 11:00:00 19.3 30 Norte 42 Norte 0 -- -- 61
2019-04-18 10:00:00 18.7 27 Norte 42 Norte 0 -- -- 66
2019-04-18 09:00:00 18.2 23 Norte 34 Norte 0 -- -- 70
2019-04-18 08:00:00 17.8 23 Norte 30 Norte 0 -- -- 73
2019-04-18 07:00:00 17.7 23 Norte 37 Norte 0 -- -- 74
2019-04-18 06:00:00 17.8 22 Norte 28 Norte 0 -- -- 74
2019-04-18 05:00:00 17.9 23 Norte 32 Norte 0 -- -- 72
2019-04-18 04:00:00 18.1 21 Norte 32 Norte 0 -- -- 74
2019-04-18 03:00:00 18.2 23 Noroeste 30 Noroeste 0 -- -- 72
2019-04-18 02:00:00 18.4 24 Norte 38 Norte 0 -- -- 73
2019-04-18 01:00:00 18.4 26 Norte 35 Norte 0 -- -- 75
2019-04-18 00:00:00 18.7 23 Noroeste 34 Noroeste 0 -- -- 73
2019-04-17 23:00:00 18.7 19 Noroeste 28 Noroeste 0 -- -- 73
2019-04-17 22:00:00 18.8 20 Norte 29 Noroeste 0 -- -- 71
2019-04-17 21:00:00 18.8 20 Noroeste 28 Noroeste 0 -- -- 68
2019-04-17 20:00:00 19.3 19 Noroeste 31 Noroeste 0 -- -- 68
2019-04-17 19:00:00 19.7 20 Noroeste 28 Noroeste 0 -- -- 67
2019-04-17 18:00:00 20 20 Noroeste 30 Noroeste 0 -- -- 65
2019-04-17 17:00:00 19.8 22 Noroeste 33 Noroeste 0 -- -- 72
2019-04-17 16:00:00 20.1 23 Oeste 35 Oeste 0 -- -- 71
2019-04-17 15:00:00 19.7 19 Noroeste 45 Oeste 0 -- -- 74
2019-04-17 14:00:00 19.7 32 Oeste 51 Oeste 0 -- -- 69
2019-04-17 13:00:00 21.8 19 Oeste 27 Noroeste 0 -- -- 51
2019-04-17 12:00:00 20.9 14 Noroeste 22 Oeste 0 -- -- 59
2019-04-17 11:00:00 19.8 14 Noroeste 23 Noroeste 0 -- -- 62
2019-04-17 10:00:00 19.8 14 Noroeste 22 Oeste 0 -- -- 63
2019-04-17 09:00:00 19.2 10 Oeste 16 Oeste 0 -- -- 66
2019-04-17 08:00:00 17.7 7 Sudoeste 11 Sudoeste 0 -- -- 75
2019-04-17 07:00:00 17.3 6 Oeste 12 Oeste 0 -- -- 77
2019-04-17 06:00:00 17.8 6 Oeste 17 Oeste 0 -- -- 82
2019-04-17 05:00:00 17.1 8 Oeste 13 Oeste 0 -- -- 88
2019-04-17 04:00:00 17.6 6 Oeste 9 Oeste 0 -- -- 87
2019-04-17 03:00:00 18.4 7 Oeste 23 Noroeste 0 -- -- 85
2019-04-17 02:00:00 18.5 15 Noroeste 33 Noroeste 0 -- -- 86
2019-04-17 01:00:00 18.2 8 Noroeste 12 Oeste 0 -- -- 86
2019-04-17 00:00:00 18.5 8 Oeste 25 Noroeste 0 -- -- 85
2019-04-16 23:00:00 18.5 16 Noroeste 22 Noroeste 0 -- -- 85
2019-04-16 22:00:00 18.5 12 Noroeste 18 Noroeste 0 -- -- 86
2019-04-16 21:00:00 18.6 14 Noroeste 20 Noroeste 0 -- -- 80
2019-04-16 20:00:00 19.5 15 Noroeste 23 Noroeste 0 -- -- 70
2019-04-16 19:00:00 19.9 18 Noroeste 25 Oeste 0 -- -- 66
2019-04-16 18:00:00 20.2 19 Noroeste 27 Noroeste 0 -- -- 67
2019-04-16 17:00:00 21.2 9 Norte 19 Noroeste 0 -- -- 66
2019-04-16 16:00:00 20.3 11 Este 22 Este 0 -- -- 68
2019-04-16 15:00:00 19.7 21 Este 27 Sudeste 0 -- -- 68
2019-04-16 14:00:00 20.2 14 Este 23 Este 0 -- -- 64
2019-04-16 13:00:00 21.9 4 Este 13 Este 0 -- -- 60
2019-04-16 12:00:00 20.5 10 Este 15 Norte 0 -- -- 63
2019-04-16 11:00:00 18.8 12 Nordeste 22 Nordeste 0 -- -- 76
2019-04-16 10:00:00 19 12 Nordeste 18 Nordeste 0 -- -- 79
2019-04-16 09:00:00 18.1 13 Nordeste 21 Nordeste 0 -- -- 85
2019-04-16 08:00:00 17.4 10 Nordeste 13 Nordeste 0 -- -- 88
2019-04-16 07:00:00 17.4 11 Nordeste 19 Nordeste 0 -- -- 86
2019-04-16 06:00:00 17.5 15 Nordeste 21 Nordeste 0 -- -- 84
2019-04-16 05:00:00 17.6 15 Nordeste 22 Norte 0 -- -- 85
2019-04-16 04:00:00 17.7 15 Nordeste 22 Nordeste 0 -- -- 87
2019-04-16 03:00:00 17.9 18 Nordeste 26 Nordeste 0 -- -- 88
2019-04-16 02:00:00 18.1 19 Nordeste 25 Nordeste 0 -- -- 87
2019-04-16 01:00:00 18.3 17 Nordeste 28 Nordeste 0 -- -- 85
2019-04-16 00:00:00 18.6 17 Nordeste 28 Nordeste 0 -- -- 83
2019-04-15 23:00:00 18.9 22 Nordeste 28 Nordeste 0 -- -- 73
2019-04-15 22:00:00 19.1 5 Este 11 Sudeste 0 -- -- 70
2019-04-15 21:00:00 19.3 3 Sur 6 Sur 0 -- -- 68
2019-04-15 20:00:00 20.4 3 Este 14 Sudeste 0 -- -- 65
2019-04-15 19:00:00 21.7 4 Este 8 Sudeste 0 -- -- 59
2019-04-15 18:00:00 20.6 6 Norte 18 Norte 0 -- -- 64
2019-04-15 17:00:00 20.9 13 Norte 21 Nordeste 0 -- -- 64
2019-04-15 16:00:00 21.9 11 Nordeste 20 Nordeste 0 -- -- 59
2019-04-15 15:00:00 20.6 15 Este 21 Este 0 -- -- 63
2019-04-15 14:00:00 20.9 13 Este 21 Este 0 -- -- 60
2019-04-15 13:00:00 21.3 10 Este 14 Sudeste 0 -- -- 61
2019-04-15 12:00:00 20.8 8 Sudeste 11 Sudeste 0 -- -- 58
2019-04-15 11:00:00 20.9 9 Este 20 Norte 0 -- -- 60
2019-04-15 10:00:00 19.1 16 Norte 24 Norte 0 -- -- 72
2019-04-15 09:00:00 19.3 17 Norte 27 Norte 0 -- -- 71
2019-04-15 08:00:00 18.3 19 Norte 27 Norte 0 -- -- 73
2019-04-15 07:00:00 17.9 20 Norte 31 Noroeste 0 -- -- 72
2019-04-15 06:00:00 17.8 17 Noroeste 27 Norte 0 -- -- 72
2019-04-15 05:00:00 18 21 Noroeste 33 Noroeste 0 -- -- 69
2019-04-15 04:00:00 18.1 22 Noroeste 36 Noroeste 0 -- -- 72
2019-04-15 03:00:00 18.1 23 Noroeste 33 Noroeste 0 -- -- 76
2019-04-15 02:00:00 18.2 18 Noroeste 28 Noroeste 0 -- -- 78
2019-04-15 01:00:00 18.3 18 Noroeste 30 Noroeste 0 -- -- 80
2019-04-15 00:00:00 18.2 19 Noroeste 31 Noroeste 0 -- -- 82
2019-04-14 23:00:00 18.3 18 Noroeste 29 Noroeste 0 -- -- 82
2019-04-14 22:00:00 18.5 18 Noroeste 31 Noroeste 0 -- -- 82
2019-04-14 21:00:00 18.5 19 Noroeste 30 Noroeste 0 -- -- 78
2019-04-14 20:00:00 18.8 19 Noroeste 33 Oeste 0 -- -- 75
2019-04-14 19:00:00 19.4 19 Noroeste 31 Noroeste 0 -- -- 71
2019-04-14 18:00:00 19.8 23 Noroeste 33 Noroeste 0 -- -- 71
2019-04-14 17:00:00 20.2 21 Noroeste 31 Noroeste 0 -- -- 70
2019-04-14 16:00:00 19.8 25 Noroeste 40 Noroeste 0 -- -- 74
2019-04-14 15:00:00 19.9 24 Noroeste 36 Noroeste 0 -- -- 72
2019-04-14 14:00:00 19.7 21 Noroeste 28 Noroeste 0 -- -- 70
2019-04-14 13:00:00 21.3 5 Nordeste 16 Sudeste 0 -- -- 63
2019-04-14 12:00:00 20.8 10 Este 15 Este 0 -- -- 61
2019-04-14 11:00:00 19.8 9 Sudeste 14 Sudeste 0 -- -- 60
2019-04-14 10:00:00 21.2 0 Calma 7 Norte 0 -- -- 66
2019-04-14 09:00:00 18.6 4 Noroeste 19 Sudoeste 0 -- -- 81
2019-04-14 08:00:00 16.3 7 Sudoeste 11 Sudoeste 0 -- -- 85
2019-04-14 07:00:00 17.2 6 Norte 19 Norte 0 -- -- 83
2019-04-14 06:00:00 17.3 15 Norte 23 Norte 0 -- -- 85
2019-04-14 05:00:00 17 17 Norte 23 Norte 0 -- -- 86
2019-04-14 04:00:00 17.1 15 Norte 24 Norte 0 -- -- 82
2019-04-14 03:00:00 16.3 0 Calma 7 Sur 0 -- -- 78
2019-04-14 02:00:00 16.5 3 Oeste 8 Sudoeste 0 -- -- 76
2019-04-14 01:00:00 17.2 4 Oeste 9 Noroeste 0 -- -- 72
2019-04-14 00:00:00 17.7 9 Nordeste 24 Este 0 -- -- 72
2019-04-13 23:00:00 17.9 12 Nordeste 41 Norte 0 -- -- 71
2019-04-13 22:00:00 18.1 31 Norte 39 Norte 0 -- -- 75
2019-04-13 21:00:00 18.2 31 Norte 51 Norte 0 -- -- 69
2019-04-13 20:00:00 19 31 Norte 42 Norte 0 -- -- 68
2019-04-13 19:00:00 19.7 31 Norte 46 Noroeste 0 -- -- 68
2019-04-13 18:00:00 19.8 34 Norte 55 Norte 0 -- -- 67
2019-04-13 17:00:00 19.8 34 Norte 46 Noroeste 0 -- -- 67
2019-04-13 16:00:00 20 32 Norte 44 Norte 0 -- -- 66
2019-04-13 15:00:00 19.9 32 Norte 42 Norte 0 -- -- 65
2019-04-13 14:00:00 20.1 28 Noroeste 42 Noroeste 0 -- -- 64
2019-04-13 13:00:00 20.9 11 Noroeste 30 Noroeste 0 -- -- 56
2019-04-13 12:00:00 20.4 10 Norte 25 Norte 0 -- -- 57
2019-04-13 11:00:00 19.9 12 Nordeste 20 Norte 0 -- -- 58
2019-04-13 10:00:00 19.4 7 Norte 14 Nordeste 0 -- -- 59
2019-04-13 09:00:00 18.1 13 Norte 25 Norte 0 -- -- 63
2019-04-13 08:00:00 17.2 15 Norte 24 Nordeste 0 -- -- 67
2019-04-13 07:00:00 17 19 Nordeste 37 Norte 0 -- -- 67
2019-04-13 06:00:00 17.1 27 Norte 41 Norte 0 -- -- 68
2019-04-13 05:00:00 17.1 26 Norte 42 Norte 0 -- -- 67
2019-04-13 04:00:00 17.1 28 Norte 38 Norte 0 -- -- 66
2019-04-13 03:00:00 17.1 28 Norte 42 Norte 0 -- -- 65
2019-04-13 02:00:00 17.3 28 Norte 46 Norte 0 -- -- 65
2019-04-13 01:00:00 17.4 30 Norte 42 Norte 0 -- -- 65
2019-04-13 00:00:00 17.6 25 Norte 38 Norte 0 -- -- 65
2019-04-12 23:00:00 17.6 32 Norte 52 Norte 0 -- -- 65
2019-04-12 22:00:00 17.8 30 Norte 41 Norte 0 -- -- 66
2019-04-12 21:00:00 18.2 26 Norte 41 Norte 0 -- -- 67
2019-04-12 20:00:00 18.3 32 Norte 46 Norte 0 -- -- 67
2019-04-12 19:00:00 19.3 30 Norte 42 Norte 0 -- -- 63
2019-04-12 18:00:00 19.4 30 Noroeste 45 Noroeste 0 -- -- 60
2019-04-12 17:00:00 19.3 33 Noroeste 49 Noroeste 0 -- -- 60
2019-04-12 16:00:00 19.2 38 Norte 49 Noroeste 0 -- -- 57
2019-04-12 15:00:00 19.5 35 Norte 52 Norte 0 -- -- 56
2019-04-12 14:00:00 19.3 37 Norte 50 Norte 0 -- -- 56
2019-04-12 13:00:00 19.9 19 Norte 37 Norte 0 -- -- 52
2019-04-12 12:00:00 18.8 28 Norte 44 Norte 0 -- -- 54
2019-04-12 11:00:00 18.7 27 Norte 40 Norte 0 -- -- 56
2019-04-12 10:00:00 18.4 28 Norte 43 Norte 0 -- -- 56
2019-04-12 09:00:00 17.6 27 Norte 37 Norte 0 -- -- 61
2019-04-12 08:00:00 17.2 23 Norte 35 Norte 0 -- -- 61
2019-04-12 07:00:00 17 25 Norte 36 Norte 0 -- -- 61
2019-04-12 06:00:00 17 24 Norte 40 Norte 0 -- -- 61
2019-04-12 05:00:00 17.1 27 Norte 44 Norte 0 -- -- 61
2019-04-12 04:00:00 17.1 29 Norte 42 Norte 0 -- -- 60
2019-04-12 03:00:00 17.3 32 Norte 40 Norte 0 -- -- 62
2019-04-12 02:00:00 17.3 27 Norte 39 Norte 0 -- -- 62
2019-04-12 01:00:00 17.5 30 Norte 41 Norte 0 -- -- 62
2019-04-12 00:00:00 17.7 34 Norte 53 Norte 0 -- -- 63
2019-04-11 23:00:00 17.7 39 Norte 50 Norte 0 -- -- 61
2019-04-11 22:00:00 17.5 37 Norte 50 Norte 0 -- -- 62
2019-04-11 21:00:00 17.9 30 Norte 44 Noroeste 0 -- -- 64
2019-04-11 20:00:00 17.8 36 Norte 51 Norte 0 -- -- 63
2019-04-11 19:00:00 18.6 33 Norte 50 Norte 0 -- -- 59
2019-04-11 18:00:00 18.9 37 Norte 52 Norte 0 -- -- 59
2019-04-11 17:00:00 19.3 38 Norte 55 Noroeste 0 -- -- 57
2019-04-11 16:00:00 19.4 41 Norte 50 Noroeste 0 -- -- 55
2019-04-11 15:00:00 19.9 36 Norte 49 Norte 0 -- -- 57
2019-04-11 14:00:00 19.4 37 Norte 55 Norte 0 -- -- 54
2019-04-11 13:00:00 19.8 32 Norte 42 Norte 0 -- -- 59
2019-04-11 12:00:00 18.9 32 Norte 50 Norte 0 -- -- 57
2019-04-11 11:00:00 18.9 28 Norte 43 Norte 0 -- -- 58
2019-04-11 10:00:00 18.2 26 Norte 38 Norte 0 -- -- 63
2019-04-11 09:00:00 18.2 27 Norte 42 Norte 0 -- -- 57
2019-04-11 08:00:00 17.4 28 Norte 44 Norte 0 -- -- 61
2019-04-11 07:00:00 17.4 30 Norte 40 Norte 0 -- -- 61
2019-04-11 06:00:00 17.5 27 Norte 42 Norte 0 -- -- 62
2019-04-11 05:00:00 17.4 27 Norte 37 Norte 0 -- -- 63
2019-04-11 04:00:00 17.3 28 Norte 36 Norte 0 -- -- 63
2019-04-11 03:00:00 17.1 22 Norte 36 Noroeste 0 -- -- 63
2019-04-11 02:00:00 17.2 31 Norte 44 Norte 0 -- -- 62
2019-04-11 01:00:00 17.5 32 Norte 45 Norte 0 -- -- 63
2019-04-11 00:00:00 17.6 28 Norte 42 Norte 0 -- -- 62
2019-04-10 23:00:00 17.8 33 Norte 49 Norte 0 -- -- 63
2019-04-10 22:00:00 17.7 32 Norte 45 Norte 0 -- -- 62
2019-04-10 21:00:00 18 35 Norte 50 Norte 0 -- -- 63
2019-04-10 20:00:00 18 38 Norte 53 Norte 0 -- -- 62
2019-04-10 19:00:00 18.5 33 Norte 51 Norte 0 -- -- 66
2019-04-10 18:00:00 19 36 Norte 53 Norte 0 -- -- 58
2019-04-10 17:00:00 19.2 37 Norte 48 Norte 0 -- -- 59
2019-04-10 16:00:00 19.4 37 Norte 46 Norte 0 -- -- 56
2019-04-10 15:00:00 19.3 35 Norte 52 Norte 0 -- -- 60
2019-04-10 14:00:00 19.6 34 Norte 59 Norte 0 -- -- 56
2019-04-10 13:00:00 19.3 32 Norte 43 Norte 0 -- -- 60
2019-04-10 12:00:00 18.3 28 Norte 39 Norte 0 -- -- 61
2019-04-10 11:00:00 18.4 29 Norte 44 Norte 0 -- -- 54
2019-04-10 10:00:00 18.3 23 Norte 33 Norte 0 -- -- 52
2019-04-10 09:00:00 17.7 27 Norte 41 Norte 0 -- -- 55
2019-04-10 08:00:00 17.3 34 Norte 43 Norte 0 -- -- 57
2019-04-10 07:00:00 17.2 31 Norte 43 Norte 0 -- -- 57
2019-04-10 06:00:00 17.3 27 Norte 46 Norte 0 -- -- 58
2019-04-10 05:00:00 17.4 36 Norte 47 Norte 0 -- -- 59
2019-04-10 04:00:00 17.5 34 Norte 44 Norte 0 -- -- 60
2019-04-10 03:00:00 17.5 21 Norte 36 Norte 0 -- -- 60
2019-04-10 02:00:00 17.5 24 Norte 45 Norte 0 -- -- 58
2019-04-10 01:00:00 17.6 24 Norte 41 Norte 0 -- -- 59
2019-04-10 00:00:00 17.6 28 Norte 44 Norte 0 -- -- 58
2019-04-09 23:00:00 17.7 18 Norte 40 Norte 0 -- -- 59
2019-04-09 22:00:00 17.6 26 Norte 37 Norte 0 -- -- 58
2019-04-09 21:00:00 17.9 27 Norte 46 Norte 0 -- -- 59
2019-04-09 20:00:00 18.1 29 Norte 49 Norte 0 -- -- 62
2019-04-09 19:00:00 19.1 31 Norte 45 Norte 0 -- -- 60
2019-04-09 18:00:00 19.5 31 Norte 40 Noroeste 0 -- -- 63
2019-04-09 17:00:00 19.4 32 Noroeste 48 Noroeste 0 -- -- 65
2019-04-09 16:00:00 19.6 35 Norte 44 Noroeste 0 -- -- 65
2019-04-09 15:00:00 19.6 35 Noroeste 44 Noroeste 0 -- -- 64
2019-04-09 14:00:00 19.7 34 Norte 50 Norte 0 -- -- 68
2019-04-09 13:00:00 19.5 30 Noroeste 42 Noroeste 0 -- -- 67
2019-04-09 12:00:00 19.7 28 Norte 41 Norte 0 -- -- 66
2019-04-09 11:00:00 19.3 18 Norte 30 Norte 0 -- -- 63
2019-04-09 10:00:00 18.7 23 Norte 31 Norte 0 -- -- 75
2019-04-09 09:00:00 18.3 17 Norte 23 Norte 0 -- -- 85
2019-04-09 08:00:00 18.1 12 Norte 21 Norte 0 -- -- 83
2019-04-09 07:00:00 18 13 Norte 16 Norte 0 -- -- 79
2019-04-09 06:00:00 17.8 6 Norte 13 Norte 0 -- -- 72
2019-04-09 05:00:00 17.6 9 Norte 21 Norte 0 -- -- 72
2019-04-09 04:00:00 17.6 16 Norte 21 Norte 0 -- -- 73
2019-04-09 03:00:00 17.7 16 Norte 27 Norte 0 -- -- 70
2019-04-09 02:00:00 17.9 20 Norte 29 Norte 0 -- -- 68
2019-04-09 01:00:00 17.9 18 Norte 26 Norte 0 -- -- 65
2019-04-09 00:00:00 17.9 17 Norte 26 Norte 0 -- -- 63
2019-04-08 23:00:00 18 24 Norte 35 Norte 0 -- -- 58
2019-04-08 22:00:00 18 22 Norte 32 Norte 0 -- -- 57
2019-04-08 21:00:00 18.2 24 Norte 36 Norte 0 -- -- 58
2019-04-08 20:00:00 18.8 23 Norte 38 Norte 0 -- -- 56
2019-04-08 19:00:00 19.9 22 Norte 39 Noroeste 0 -- -- 54
2019-04-08 18:00:00 19.9 28 Norte 37 Norte 0 -- -- 56
2019-04-08 17:00:00 20.1 27 Norte 37 Norte 0 -- -- 56
2019-04-08 16:00:00 19.8 28 Norte 36 Norte 0 -- -- 58
2019-04-08 15:00:00 20.1 26 Norte 41 Norte 0 -- -- 59
2019-04-08 14:00:00 20.2 26 Noroeste 36 Noroeste 0 -- -- 57
2019-04-08 13:00:00 19.9 22 Noroeste 29 Noroeste 0 -- -- 62
2019-04-08 12:00:00 20 20 Norte 30 Norte 0 -- -- 65
2019-04-08 11:00:00 19.7 15 Noroeste 22 Noroeste 0 -- -- 70
2019-04-08 10:00:00 18.6 12 Noroeste 20 Noroeste 0 -- -- 78
2019-04-08 09:00:00 18.4 10 Noroeste 15 Noroeste 0 -- -- 80
2019-04-08 08:00:00 17.3 9 Noroeste 23 Norte 0 -- -- 84
2019-04-08 07:00:00 17.4 21 Norte 30 Norte 0 -- -- 85
2019-04-08 06:00:00 17.6 20 Norte 31 Norte 0 -- -- 84
2019-04-08 05:00:00 17.8 18 Norte 28 Noroeste 0 -- -- 83
2019-04-08 04:00:00 17.6 12 Norte 23 Norte 0 -- -- 84
2019-04-08 03:00:00 17.8 17 Norte 23 Norte 0 -- -- 81
2019-04-08 02:00:00 17.9 17 Norte 29 Norte 0 -- -- 81
2019-04-08 01:00:00 17.9 19 Norte 27 Norte 0 -- -- 79
2019-04-08 00:00:00 18 19 Norte 26 Noroeste 0 -- -- 76
2019-04-07 23:00:00 18 19 Norte 32 Noroeste 0 -- -- 77
2019-04-07 22:00:00 18.1 18 Norte 27 Norte 0 -- -- 78
2019-04-07 21:00:00 18.2 19 Noroeste 30 Norte 0 -- -- 71
2019-04-07 20:00:00 18.9 19 Noroeste 27 Noroeste 0 -- -- 67
2019-04-07 19:00:00 19.6 19 Noroeste 30 Noroeste 0 -- -- 63
2019-04-07 18:00:00 19.9 22 Noroeste 30 Noroeste 0 -- -- 62
2019-04-07 17:00:00 19.6 20 Noroeste 29 Noroeste 0 -- -- 63
2019-04-07 16:00:00 19.8 20 Noroeste 31 Noroeste 0 -- -- 63
2019-04-07 15:00:00 19.9 20 Noroeste 32 Noroeste 0 -- -- 61
2019-04-07 14:00:00 20 21 Noroeste 32 Noroeste 0 -- -- 62
2019-04-07 13:00:00 19.7 22 Noroeste 33 Noroeste 0 -- -- 64
2019-04-07 12:00:00 19.6 23 Noroeste 37 Noroeste 0 -- -- 65
2019-04-07 11:00:00 19.2 20 Noroeste 35 Noroeste 0 -- -- 66
2019-04-07 10:00:00 18.5 19 Noroeste 36 Noroeste 0.2 -- -- 72
2019-04-07 09:00:00 18.5 23 Norte 33 Noroeste 0 -- -- 68
2019-04-07 08:00:00 17.5 18 Noroeste 27 Noroeste 0 -- -- 67
2019-04-07 07:00:00 17.3 15 Noroeste 24 Norte 0 -- -- 65
2019-04-07 06:00:00 17.4 18 Noroeste 30 Noroeste 0 -- -- 64
2019-04-07 05:00:00 17.2 15 Noroeste 25 Noroeste 0 -- -- 65
2019-04-07 04:00:00 17.3 18 Norte 28 Norte 0 -- -- 65
2019-04-07 03:00:00 17.3 18 Norte 26 Norte 0 -- -- 66
2019-04-07 02:00:00 17.4 15 Norte 19 Norte 0 -- -- 64
2019-04-07 01:00:00 17.3 15 Norte 26 Norte 0 -- -- 59
2019-04-07 00:00:00 17.3 18 Norte 30 Norte 0 -- -- 59
2019-04-06 23:00:00 17.5 24 Norte 36 Norte 0 -- -- 58
2019-04-06 22:00:00 17.5 29 Norte 40 Norte 0 -- -- 59
2019-04-06 21:00:00 17.4 25 Norte 41 Noroeste 0 -- -- 61
2019-04-06 20:00:00 17.6 26 Norte 35 Norte 0 -- -- 62
2019-04-06 19:00:00 18.4 27 Norte 39 Noroeste 0 -- -- 56
2019-04-06 18:00:00 18.7 28 Noroeste 42 Noroeste 0 -- -- 53
2019-04-06 17:00:00 18.8 26 Noroeste 41 Noroeste 0 -- -- 53
2019-04-06 16:00:00 18.7 29 Norte 44 Noroeste 0 -- -- 58
2019-04-06 15:00:00 18.7 30 Norte 47 Norte 0 -- -- 53
2019-04-06 14:00:00 18.3 27 Noroeste 47 Norte 0 -- -- 55
2019-04-06 13:00:00 17.9 33 Noroeste 44 Noroeste 0 -- -- 57
2019-04-06 12:00:00 18.4 30 Noroeste 44 Norte 0 -- -- 53
2019-04-06 11:00:00 18 32 Norte 49 Noroeste 0 -- -- 57
2019-04-06 10:00:00 17.8 28 Noroeste 41 Norte 0 -- -- 52
2019-04-06 09:00:00 17.2 29 Noroeste 48 Norte 0 -- -- 53
2019-04-06 08:00:00 16.4 35 Norte 48 Noroeste 0 -- -- 66
2019-04-06 07:00:00 16.6 27 Noroeste 41 Norte 0 -- -- 60
2019-04-06 06:00:00 16.6 32 Norte 43 Norte 0 -- -- 60
2019-04-06 05:00:00 16.6 27 Norte 39 Norte 0 -- -- 66
2019-04-06 04:00:00 16.8 29 Norte 45 Norte 0 -- -- 67
2019-04-06 03:00:00 16.8 31 Norte 44 Norte 0 -- -- 69
2019-04-06 02:00:00 16.6 18 Norte 40 Norte 0 -- -- 80
2019-04-06 01:00:00 16.2 35 Norte 57 Norte 0 -- -- 84
2019-04-06 00:00:00 17 21 Norte 39 Norte 0 -- -- 70
2019-04-05 23:00:00 16.9 31 Norte 51 Noroeste 0 -- -- 65
2019-04-05 22:00:00 17.3 28 Noroeste 50 Norte 0.2 -- -- 68
2019-04-05 21:00:00 17.9 24 Noroeste 38 Noroeste 0 -- -- 57
2019-04-05 20:00:00 18.1 27 Noroeste 45 Noroeste 0 -- -- 53
2019-04-05 19:00:00 18.2 25 Noroeste 41 Norte 0 -- -- 58
2019-04-05 18:00:00 18.3 25 Norte 41 Noroeste 0 -- -- 68
2019-04-05 17:00:00 18.4 27 Noroeste 44 Noroeste 0 -- -- 62
2019-04-05 16:00:00 17.9 28 Noroeste 53 Noroeste 0.6 -- -- 68
2019-04-05 15:00:00 19.7 25 Oeste 41 Oeste 0 -- -- 55
2019-04-05 14:00:00 18.5 21 Noroeste 46 Noroeste 0 -- -- 62
2019-04-05 13:00:00 19.7 23 Noroeste 39 Oeste 0 -- -- 51
2019-04-05 12:00:00 19.4 22 Noroeste 35 Oeste 0 -- -- 52
2019-04-05 11:00:00 19.2 18 Noroeste 29 Oeste 0 -- -- 56
2019-04-05 10:00:00 16.9 17 Oeste 39 Oeste 0 -- -- 63
2019-04-05 09:00:00 18.1 20 Noroeste 31 Oeste 0 -- -- 55
2019-04-05 08:00:00 17.5 15 Noroeste 30 Noroeste 0 -- -- 54
2019-04-05 07:00:00 17.2 22 Noroeste 31 Noroeste 0 -- -- 54
2019-04-05 06:00:00 17.2 22 Noroeste 36 Noroeste 0 -- -- 53
2019-04-05 05:00:00 17.1 22 Noroeste 35 Noroeste 0 -- -- 60
2019-04-05 04:00:00 16.9 18 Noroeste 36 Noroeste 0 -- -- 62
2019-04-05 03:00:00 16.9 31 Noroeste 41 Noroeste 0 -- -- 64
2019-04-05 02:00:00 17.3 23 Noroeste 37 Noroeste 0 -- -- 59
2019-04-05 01:00:00 17.3 23 Noroeste 34 Noroeste 0 -- -- 57
2019-04-05 00:00:00 17.4 19 Noroeste 30 Noroeste 0 -- -- 59
2019-04-04 23:00:00 17.5 22 Noroeste 33 Noroeste 0 -- -- 63
2019-04-04 22:00:00 17.6 23 Noroeste 35 Noroeste 0 -- -- 60
2019-04-04 21:00:00 17.9 24 Norte 40 Noroeste 0 -- -- 66
2019-04-04 20:00:00 18.1 21 Noroeste 31 Noroeste 0 -- -- 63
2019-04-04 19:00:00 18.8 22 Noroeste 31 Noroeste 0 -- -- 57
2019-04-04 18:00:00 19.4 21 Noroeste 30 Noroeste 0 -- -- 56
2019-04-04 17:00:00 19.4 21 Noroeste 30 Noroeste 0 -- -- 58
2019-04-04 16:00:00 19.4 21 Noroeste 30 Noroeste 0 -- -- 58
2019-04-04 15:00:00 19.2 19 Noroeste 26 Noroeste 0 -- -- 62
2019-04-04 14:00:00 18.7 18 Noroeste 28 Norte 0 -- -- 63
2019-04-04 13:00:00 19.1 20 Noroeste 29 Noroeste 0 -- -- 60
2019-04-04 12:00:00 18.7 17 Noroeste 30 Noroeste 0 -- -- 61
2019-04-04 11:00:00 18.9 12 Noroeste 20 Norte 0 -- -- 65
2019-04-04 10:00:00 18.5 11 Norte 23 Norte 0 -- -- 72
2019-04-04 09:00:00 17.5 23 Norte 36 Noroeste 0 -- -- 77
2019-04-04 08:00:00 17.6 16 Noroeste 28 Oeste 0 -- -- 72
2019-04-04 07:00:00 17.5 15 Noroeste 29 Noroeste 0.2 -- -- 71
2019-04-04 06:00:00 17.3 14 Oeste 22 Oeste 0 -- -- 70
2019-04-04 05:00:00 17 9 Oeste 15 Oeste 0 -- -- 71
2019-04-04 04:00:00 17.1 8 Sudoeste 14 Sudoeste 0 -- -- 69
2019-04-04 03:00:00 17 8 Sudoeste 13 Sudoeste 0 -- -- 67
2019-04-04 02:00:00 17.4 9 Sudoeste 14 Sudoeste 0 -- -- 66
2019-04-04 01:00:00 17.7 9 Sudoeste 15 Sudoeste 0 -- -- 66
2019-04-04 00:00:00 18.1 9 Oeste 15 Oeste 0 -- -- 65
2019-04-03 23:00:00 18.1 10 Oeste 21 Noroeste 0 -- -- 64
2019-04-03 22:00:00 18.4 13 Noroeste 27 Oeste 0 -- -- 63
2019-04-03 21:00:00 18.5 16 Oeste 28 Oeste 0 -- -- 63
2019-04-03 20:00:00 18.7 20 Noroeste 33 Noroeste 0 -- -- 62
2019-04-03 19:00:00 19.2 21 Oeste 35 Noroeste 0 -- -- 62
2019-04-03 18:00:00 19.8 27 Oeste 39 Oeste 0 -- -- 56
2019-04-03 17:00:00 20.4 19 Oeste 42 Oeste 0 -- -- 58
2019-04-03 16:00:00 19.5 29 Oeste 43 Oeste 0 -- -- 61
2019-04-03 15:00:00 19.6 26 Oeste 38 Noroeste 0 -- -- 69
2019-04-03 14:00:00 19 28 Oeste 45 Oeste 0 -- -- 67
2019-04-03 13:00:00 19.6 27 Oeste 40 Oeste 0 -- -- 67
2019-04-03 12:00:00 20.4 20 Oeste 33 Oeste 0 -- -- 63
2019-04-03 11:00:00 20.1 19 Oeste 30 Oeste 0 -- -- 67
2019-04-03 10:00:00 20 16 Oeste 27 Oeste 0 -- -- 68
2019-04-03 09:00:00 19 10 Oeste 18 Oeste 0 -- -- 82
2019-04-03 08:00:00 17 12 Oeste 22 Oeste 0 -- -- 87
2019-04-03 07:00:00 17 14 Oeste 20 Oeste 0 -- -- 88
2019-04-03 06:00:00 17 8 Oeste 16 Oeste 0 -- -- 87
2019-04-03 05:00:00 17.1 11 Oeste 19 Oeste 0 -- -- 86
2019-04-03 04:00:00 17.3 12 Oeste 22 Oeste 0 -- -- 86
2019-04-03 03:00:00 17.5 14 Oeste 22 Oeste 0 -- -- 85
2019-04-03 02:00:00 17.9 14 Oeste 24 Oeste 0 -- -- 85
2019-04-03 01:00:00 17.9 13 Oeste 18 Oeste 0 -- -- 89
2019-04-03 00:00:00 18.2 13 Oeste 19 Oeste 0 -- -- 89
2019-04-02 23:00:00 18.4 11 Noroeste 20 Noroeste 0 -- -- 88
2019-04-02 22:00:00 18.6 15 Noroeste 25 Noroeste 0 -- -- 87
2019-04-02 21:00:00 18.9 14 Noroeste 25 Noroeste 0 -- -- 80
2019-04-02 20:00:00 19.4 20 Noroeste 29 Noroeste 0 -- -- 76
2019-04-02 19:00:00 20.5 22 Noroeste 32 Noroeste 0 -- -- 69
2019-04-02 18:00:00 20.7 22 Noroeste 33 Noroeste 0 -- -- 69
2019-04-02 17:00:00 21 16 Norte 27 Noroeste 0 -- -- 66
2019-04-02 16:00:00 21 12 Norte 22 Norte 0 -- -- 70
2019-04-02 15:00:00 19.4 19 Nordeste 26 Este 0 -- -- 74
2019-04-02 14:00:00 20.6 18 Este 27 Este 0 -- -- 63
2019-04-02 13:00:00 19.9 21 Este 30 Este 0 -- -- 70
2019-04-02 12:00:00 19.8 19 Este 27 Este 0 -- -- 71
2019-04-02 11:00:00 19.5 19 Este 27 Este 0 -- -- 71
2019-04-02 10:00:00 19.1 18 Este 29 Este 0 -- -- 76
2019-04-02 09:00:00 18.5 24 Este 33 Este 0 -- -- 79
2019-04-02 08:00:00 18 26 Este 37 Este 0 -- -- 82
2019-04-02 07:00:00 17.9 27 Este 45 Este 0 -- -- 80
2019-04-02 06:00:00 17.9 25 Este 31 Este 0 -- -- 77
2019-04-02 05:00:00 17.9 25 Este 35 Este 0 -- -- 77
2019-04-02 04:00:00 17.9 23 Este 31 Este 0 -- -- 81
2019-04-02 03:00:00 17.7 23 Este 33 Este 0 -- -- 83
2019-04-02 02:00:00 17.8 15 Nordeste 23 Nordeste 0 -- -- 85
2019-04-02 01:00:00 17.8 11 Nordeste 17 Nordeste 0 -- -- 82
2019-04-02 00:00:00 18.1 9 Nordeste 13 Nordeste 0 -- -- 69
2019-04-01 23:00:00 18.1 9 Nordeste 15 Nordeste 0 -- -- 68
2019-04-01 22:00:00 18.1 9 Este 14 Este 0 -- -- 69
2019-04-01 21:00:00 18.3 8 Sudeste 13 Sudeste 0 -- -- 67
2019-04-01 20:00:00 18.6 9 Sudeste 14 Sudeste 0 -- -- 62
2019-04-01 19:00:00 19.5 9 Este 17 Sudeste 0 -- -- 59
2019-04-01 18:00:00 19.9 12 Este 17 Este 0 -- -- 57
2019-04-01 17:00:00 19.5 5 Este 13 Norte 0 -- -- 59
2019-04-01 16:00:00 19.5 11 Norte 17 Norte 0 -- -- 59
2019-04-01 15:00:00 19.8 13 Norte 19 Norte 0 -- -- 62
2019-04-01 14:00:00 20.4 13 Norte 20 Noroeste 0 -- -- 58
2019-04-01 13:00:00 19.9 13 Noroeste 18 Noroeste 0 -- -- 59
2019-04-01 12:00:00 19.9 10 Noroeste 15 Noroeste 0 -- -- 58
2019-04-01 11:00:00 20.1 7 Norte 11 Norte 0 -- -- 59
2019-04-01 10:00:00 19.9 5 Norte 12 Norte 0 -- -- 61
2019-04-01 09:00:00 19 9 Norte 13 Norte 0 -- -- 64
2019-04-01 08:00:00 17.5 12 Norte 20 Norte 0 -- -- 71
2019-04-01 07:00:00 17.6 14 Noroeste 23 Noroeste 0 -- -- 68
2019-04-01 06:00:00 17.7 14 Noroeste 22 Noroeste 0 -- -- 69
2019-04-01 05:00:00 17.9 12 Noroeste 27 Noroeste 0 -- -- 71
2019-04-01 04:00:00 17.9 14 Noroeste 22 Noroeste 0 -- -- 72
2019-04-01 03:00:00 18.1 10 Noroeste 15 Noroeste 0 -- -- 75
2019-04-01 02:00:00 18.2 10 Noroeste 15 Noroeste 0 -- -- 75
2019-04-01 01:00:00 18.4 7 Noroeste 11 Noroeste 0 -- -- 75
2019-04-01 00:00:00 18.2 8 Noroeste 12 Oeste 0 -- -- 76
2019-03-31 23:00:00 18.2 9 Noroeste 15 Oeste 0 -- -- 76
2019-03-31 22:00:00 18.2 10 Oeste 20 Oeste 0 -- -- 75
2019-03-31 21:00:00 18.5 14 Oeste 27 Oeste 0 -- -- 73
2019-03-31 20:00:00 19 18 Oeste 37 Oeste 0 -- -- 67
2019-03-31 19:00:00 19.6 23 Oeste 35 Oeste 0 -- -- 63
2019-03-31 18:00:00 19.9 23 Oeste 44 Oeste 0 -- -- 58
2019-03-31 17:00:00 20 21 Oeste 37 Noroeste 0 -- -- 59
2019-03-31 16:00:00 20.2 23 Oeste 37 Noroeste 0 -- -- 60
2019-03-31 15:00:00 20.2 22 Oeste 37 Oeste 0 -- -- 56
2019-03-31 14:00:00 19.9 22 Oeste 32 Oeste 0 -- -- 57
2019-03-31 13:00:00 19.9 20 Oeste 32 Oeste 0 -- -- 56
2019-03-31 12:00:00 19.4 21 Oeste 36 Noroeste 0 -- -- 57
2019-03-31 11:00:00 19.6 18 Oeste 30 Oeste 0 -- -- 56
2019-03-31 10:00:00 19 18 Oeste 34 Oeste 0 -- -- 59
2019-03-31 09:00:00 18.2 13 Oeste 21 Oeste 0 -- -- 61
2019-03-31 08:00:00 17.3 12 Oeste 23 Oeste 0 -- -- 64
2019-03-31 07:00:00 17.4 13 Oeste 28 Oeste 0 -- -- 64
2019-03-31 06:00:00 17.5 18 Oeste 30 Oeste 0 -- -- 63
2019-03-31 05:00:00 17.7 18 Noroeste 31 Noroeste 0 -- -- 62
2019-03-31 04:00:00 17.5 13 Oeste 24 Oeste 0 -- -- 64
2019-03-31 00:00:00 18 16 Noroeste 28 Noroeste 0 -- -- 64
2019-03-30 23:00:00 18.1 18 Noroeste 27 Oeste 0 -- -- 64
2019-03-30 22:00:00 18.2 16 Noroeste 33 Noroeste 0 -- -- 62
2019-03-30 21:00:00 18.3 16 Noroeste 26 Noroeste 0 -- -- 62
2019-03-30 20:00:00 18.5 17 Noroeste 26 Noroeste 0 -- -- 58
2019-03-30 19:00:00 18.8 16 Noroeste 26 Noroeste 0 -- -- 59
2019-03-30 18:00:00 19.5 17 Noroeste 28 Noroeste 0 -- -- 55
2019-03-30 17:00:00 19.8 20 Noroeste 28 Noroeste 0 -- -- 55
2019-03-30 16:00:00 19.6 19 Noroeste 28 Noroeste 0 -- -- 54
2019-03-30 15:00:00 20 18 Noroeste 27 Noroeste 0 -- -- 54
2019-03-30 14:00:00 19.8 18 Noroeste 30 Noroeste 0 -- -- 54
2019-03-30 13:00:00 19.9 15 Noroeste 23 Oeste 0 -- -- 54
2019-03-30 12:00:00 19.5 15 Noroeste 22 Noroeste 0 -- -- 54
2019-03-30 11:00:00 19.3 13 Noroeste 24 Noroeste 0 -- -- 57
2019-03-30 10:00:00 19.9 6 Noroeste 11 Noroeste 0 -- -- 58
2019-03-30 09:00:00 19.3 8 Norte 12 Norte 0 -- -- 62
2019-03-30 08:00:00 18.5 8 Norte 13 Norte 0 -- -- 65
2019-03-30 07:00:00 15.7 4 Oeste 5 Oeste 0 -- -- 74
2019-03-30 06:00:00 16.4 4 Norte 8 Nordeste 0 -- -- 72
2019-03-30 05:00:00 16.2 0 Calma 10 Nordeste 0 -- -- 71
2019-03-30 04:00:00 16.9 7 Nordeste 12 Nordeste 0 -- -- 72
2019-03-30 03:00:00 17 7 Nordeste 14 Nordeste 0 -- -- 73
2019-03-30 02:00:00 17.3 10 Nordeste 18 Norte 0 -- -- 72
2019-03-30 01:00:00 17.3 12 Norte 22 Noroeste 0 -- -- 73
2019-03-30 00:00:00 17.4 15 Norte 21 Norte 0 -- -- 74
2019-03-29 23:00:00 17.6 13 Norte 21 Norte 0 -- -- 71
2019-03-29 22:00:00 17.8 13 Norte 21 Norte 0 -- -- 71
2019-03-29 21:00:00 18.1 16 Norte 28 Norte 0 -- -- 70
2019-03-29 20:00:00 18.5 19 Norte 29 Norte 0 -- -- 69
2019-03-29 19:00:00 18.8 21 Norte 31 Norte 0 -- -- 67
2019-03-29 18:00:00 19.4 21 Norte 30 Noroeste 0 -- -- 64
2019-03-29 17:00:00 19.6 17 Norte 23 Norte 0 -- -- 63
2019-03-29 16:00:00 19.6 15 Noroeste 24 Noroeste 0 -- -- 63
2019-03-29 15:00:00 20.9 10 Este 18 Este 0 -- -- 56
2019-03-29 14:00:00 20.2 13 Este 18 Este 0 -- -- 58
2019-03-29 13:00:00 20.1 13 Este 17 Este 0 -- -- 57
2019-03-29 12:00:00 20.2 8 Sudeste 12 Este 0 -- -- 59
2019-03-29 11:00:00 19.9 9 Sudeste 15 Sudeste 0 -- -- 61
2019-03-29 10:00:00 19.2 10 Este 17 Este 0 -- -- 65
2019-03-29 09:00:00 18.5 9 Este 15 Nordeste 0 -- -- 71
2019-03-29 08:00:00 18.1 10 Nordeste 15 Nordeste 0 -- -- 78
2019-03-29 07:00:00 16.8 9 Nordeste 15 Norte 0 -- -- 84
2019-03-29 06:00:00 16.8 13 Norte 20 Nordeste 0 -- -- 85
2019-03-29 05:00:00 16.9 15 Nordeste 20 Este 0 -- -- 84
2019-03-29 04:00:00 16.9 13 Nordeste 21 Este 0 -- -- 85
2019-03-29 03:00:00 17 14 Este 19 Nordeste 0 -- -- 83
2019-03-29 02:00:00 17 15 Nordeste 19 Nordeste 0 -- -- 81
2019-03-29 01:00:00 17.2 13 Nordeste 21 Nordeste 0 -- -- 79
2019-03-29 00:00:00 17.4 14 Nordeste 24 Nordeste 0 -- -- 76
2019-03-28 23:00:00 17.7 13 Nordeste 17 Este 0 -- -- 77
2019-03-28 22:00:00 17.9 13 Este 20 Nordeste 0 -- -- 76
2019-03-28 21:00:00 18.3 10 Este 16 Este 0 -- -- 77
2019-03-28 20:00:00 18.3 8 Nordeste 11 Nordeste 0 -- -- 73
2019-03-28 19:00:00 18.7 9 Nordeste 22 Noroeste 0 -- -- 69
2019-03-28 18:00:00 19.7 17 Noroeste 24 Norte 0 -- -- 63
2019-03-28 17:00:00 20 17 Norte 22 Noroeste 0 -- -- 59
2019-03-28 16:00:00 20.1 16 Norte 26 Norte 0 -- -- 59
2019-03-28 15:00:00 20 16 Noroeste 25 Noroeste 0 -- -- 57
2019-03-28 14:00:00 19.9 18 Norte 24 Noroeste 0 -- -- 59
2019-03-28 13:00:00 19.8 14 Norte 19 Norte 0 -- -- 59
2019-03-28 12:00:00 19.7 11 Norte 17 Noroeste 0 -- -- 63
2019-03-28 11:00:00 19.9 6 Norte 9 Norte 0 -- -- 62
2019-03-28 10:00:00 19.7 5 Norte 9 Noroeste 0 -- -- 66
2019-03-28 09:00:00 18.2 7 Nordeste 13 Norte 0 -- -- 75
2019-03-28 08:00:00 18 12 Norte 18 Norte 0 -- -- 83
2019-03-28 07:00:00 17.1 11 Norte 17 Norte 0 -- -- 86
2019-03-28 06:00:00 17.2 13 Norte 18 Norte 0 -- -- 86
2019-03-28 05:00:00 17.2 12 Norte 18 Norte 0 -- -- 88
2019-03-28 04:00:00 17.4 15 Norte 23 Norte 0 -- -- 88
2019-03-28 03:00:00 17.5 15 Norte 26 Norte 0 -- -- 88
2019-03-28 02:00:00 17.8 11 Norte 17 Norte 0 -- -- 84
2019-03-28 01:00:00 17.3 0 Calma 12 Norte 0 -- -- 84
2019-03-28 00:00:00 18 9 Norte 14 Norte 0 -- -- 83
2019-03-27 23:00:00 18.1 12 Norte 16 Norte 0 -- -- 82
2019-03-27 22:00:00 18.3 13 Noroeste 18 Norte 0 -- -- 81
2019-03-27 21:00:00 18.5 14 Norte 20 Norte 0 -- -- 83
2019-03-27 20:00:00 18.6 15 Norte 19 Norte 0 -- -- 82
2019-03-27 19:00:00 19 15 Noroeste 24 Noroeste 0 -- -- 73
2019-03-27 18:00:00 19.6 18 Noroeste 26 Noroeste 0 -- -- 68
2019-03-27 17:00:00 20.1 16 Noroeste 24 Noroeste 0 -- -- 66
2019-03-27 16:00:00 20.3 16 Noroeste 26 Noroeste 0 -- -- 65
2019-03-27 15:00:00 20 17 Noroeste 27 Noroeste 0 -- -- 65
2019-03-27 14:00:00 20.2 18 Noroeste 30 Noroeste 0 -- -- 65
2019-03-27 13:00:00 20.1 17 Noroeste 25 Noroeste 0 -- -- 66
2019-03-27 12:00:00 20.3 15 Noroeste 26 Noroeste 0 -- -- 61
2019-03-27 11:00:00 20.2 12 Noroeste 21 Noroeste 0 -- -- 62
2019-03-27 10:00:00 20.1 8 Noroeste 14 Noroeste 0 -- -- 68
2019-03-27 09:00:00 19.6 8 Oeste 12 Noroeste 0 -- -- 73
2019-03-27 08:00:00 18.3 4 Oeste 8 Oeste 0 -- -- 83
2019-03-27 07:00:00 16 5 Sudoeste 10 Sudoeste 0 -- -- 88
2019-03-27 06:00:00 16.1 6 Oeste 10 Sudoeste 0 -- -- 88
2019-03-27 05:00:00 16.2 6 Sudoeste 10 Oeste 0 -- -- 88
2019-03-27 04:00:00 16.4 8 Oeste 12 Sudoeste 0 -- -- 87
2019-03-27 03:00:00 16.4 6 Sudoeste 16 Oeste 0 -- -- 87
2019-03-27 02:00:00 17.5 9 Noroeste 17 Noroeste 0 -- -- 83
2019-03-27 01:00:00 17.6 12 Noroeste 15 Noroeste 0 -- -- 81
2019-03-27 00:00:00 17.7 9 Noroeste 14 Noroeste 0 -- -- 80